Flag for U.S.A. Weather past 2 weeks in Angels Camp, California, U.S.A.

Now
51 °F

Clear.


Feels Like: 51 °F
Forecast: 39 / 64 °F
Wind: No wind

Location: Modesto City-County-Sham Field

Current Time: Jan 29, 2015 at 9:20:12 PM

Latest Report: Jan 29, 2015 at 8:53 PM


Visibility: 8 mi

Pressure: 30.06 "Hg

Humidity: 80%

Dew point: 45 °F

Location of Angels CampLocation

Historic Weather in Angels Camp — Graph

°F

Angels Camp temperature yesterday

Maximum temperature yesterday: 65 °F (at 2:53 PM)
Minimum temperature yesterday: 46 °F (at 7:53 AM)
Average temperature yesterday: 54 °F

Past Weeks' High & Low Weather Summary

 TemperatureHumidityPressure
High65 °F (Jan 28, 2:53 PM)100% (Jan 23, 8:53 AM)30.40 "Hg (Jan 23, 8:53 AM)
Low34 °F (Jan 23, 3:53 AM)49% (Jan 29, 3:53 PM)30.00 "Hg (Jan 26, 2:53 PM)
Average48 °F88%30.22 "Hg
* Reported Jan 14 7:53 PM — Jan 29 7:53 PM, Angels Camp, Weather by CustomWeather, © 2014

Note: Actual official high and low records may vary slightly from our data, if they occured in-between our weather recording intervals... More about our weather records

Advertising

Angels Camp weather history for previous 24 hours

 ConditionsComfort  
Time TempWeatherWind HumidityBarometerVisibility
7:53 PM
Jan 29
53 °FClear.No wind77%30.06 "Hg9 mi
6:53 PM56 °FClear.No wind70%30.06 "Hg10 mi
5:53 PM60 °FClear.6 mph60%30.06 "Hg10 mi
4:53 PM62 °FSunny.6 mph58%30.06 "Hg9 mi
3:53 PM65 °FSunny.6 mph49%30.06 "Hg8 mi
2:53 PM65 °FSunny.3 mph51%30.07 "Hg9 mi
1:53 PM64 °FSunny.No wind54%30.08 "Hg8 mi
12:53 PM61 °FSunny.3 mph60%30.11 "Hg8 mi
11:53 AM59 °FSunny.3 mph69%30.15 "Hg6 mi
10:53 AM56 °FSunny.3 mph81%30.16 "Hg5 mi
9:53 AM50 °FFog.No wind93%30.17 "Hg3 mi
8:53 AM47 °FFog.No wind97%30.17 "Hg1 mi
7:53 AM44 °FFog.No wind96%30.16 "Hg0 mi
6:53 AM44 °FFog.No wind96%30.15 "Hg0 mi
5:53 AM44 °FFog.No wind96%30.14 "Hg0 mi
4:53 AM45 °FFog.No wind97%30.14 "Hg0 mi
3:53 AM45 °FFog.No wind97%30.14 "Hg0 mi
2:53 AM46 °FFog.3 mph96%30.15 "Hg0 mi
1:53 AM42 °FFog.No wind96%30.16 "Hg1 mi
12:53 AM44 °FFog.3 mph96%30.17 "Hg0 mi
12:00 AM46 °FFog.5 mph93%30.18 "Hg0 mi
11:53 PM
Jan 28
46 °FFog.6 mph93%30.18 "Hg1 mi
10:53 PM49 °FFog.No wind93%30.17 "Hg4 mi
9:53 PM50 °FFog.5 mph89%30.17 "Hg6 mi
Weather by CustomWeather, © 2014

See weather overviewHow to use our weather pages